This demonstration page uses our WeatherBlox Daily Observations layout. Learn more.

Left ArrowRight Arrow

Hourly Observations for August 27, 2020

Temp ( °F °C ) Dew Point ( °F °C ) Humidity (%) Winds ( mph kmh ) Pressure ( in mb ) Visibility ( mi km ) Precip ( " mm )
12:15 am 00:15 Clear 72 22 61 16 69 69 S 6 9 29.76 1008 10 16.0934 0 0
12:35 am 00:35 Clear 72 22.2 60 15.7 67 67 S 6 9 29.77 1008 10 16.0934 0 0
12:55 am 00:55 Clear 71 21.6 60 15.8 70 70 SSE 3 6 29.77 1008 10 16.0934 0 0
1:15 am 01:15 Clear 71 21.8 60 15.7 68 68 S 6 9 29.78 1009 10 16.0934 0 0
1:35 am 01:35 Clear 72 22.2 60 15.5 66 66 S 5 7 29.79 1009 10 16.0934 0 0
1:55 am 01:55 Clear 72 22.2 60 15.5 66 66 S 8 13 29.8 1009 10 16.0934 0 0
2:15 am 02:15 Clear 73 22.9 60 15.3 62 62 S 6 9 29.79 1009 10 16.0934 0 0
2:35 am 02:35 Clear 72 22.2 59 15.2 65 65 S 7 11 29.78 1008 10 16.0934 0 0
2:55 am 02:55 Clear 71 21.7 60 15.5 68 68 S 7 11 29.76 1008 10 16.0934 0 0
3:15 am 03:15 Clear 70 21.3 60 15.5 70 70 S 5 7 29.77 1008 10 16.0934 0 0
3:35 am 03:35 Clear 70 21.3 60 15.5 70 70 S 6 9 29.76 1008 10 16.0934 0 0
3:55 am 03:55 Clear 71 21.6 60 15.5 68 68 S 10 17 29.75 1008 10 16.0934 0 0
4:15 am 04:15 Clear 70 21.3 60 15.6 70 70 S 10 17 29.75 1007 10 16.0934 0 0
4:35 am 04:35 Clear 70 21.1 61 16.1 73 73 S 9 15 29.75 1007 10 16.0934 0 0
4:55 am 04:55 Clear 70 21.2 62 16.5 75 75 S 9 15 29.75 1007 10 16.0934 0 0
5:15 am 05:15 Clear 70 21.3 63 17 77 77 S 9 15 29.75 1007 10 16.0934 0 0
5:35 am 05:35 Clear 70 21.2 63 17.2 78 78 S 10 17 29.75 1007 10 16.0934 0 0
5:55 am 05:55 Clear 70 21 64 17.5 81 81 S 9 15 29.74 1007 10 16.0934 0 0
6:15 am 06:15 Clear 69 20.8 64 17.9 84 84 S 7 11 29.75 1007 10 16.0934 0 0
6:35 am 06:35 Clear 70 21 65 18.1 84 84 S 3 6 29.75 1007 10 16.0934 0 0
6:55 am 06:55 Clear 70 21 65 18.1 84 84 S 8 13 29.75 1007 10 16.0934 0 0
7:15 am 07:15 Sunny 69 20.8 65 18.2 85 85 SSW 10 17 29.76 1008 10 16.0934 0 0
7:35 am 07:35 Sunny 70 21.2 65 18.3 84 84 S 8 13 29.78 1008 10 16.0934 0 0
7:55 am 07:55 Sunny 70 21.3 65 18.5 84 84 S 8 13 29.78 1008 10 16.0934 0 0
8:15 am 08:15 Sunny 71 21.8 65 18.5 82 82 S 9 15 29.77 1008 10 16.0934 0 0
8:35 am 08:35 Sunny 72 22.3 65 18.6 80 80 S 9 15 29.77 1008 10 16.0934 0 0
8:55 am 08:55 Sunny 73 23 65 18.6 76 76 S 9 15 29.76 1008 10 16.0934 0 0
9:15 am 09:15 Sunny 75 23.7 65 18.3 72 72 S 9 15 29.77 1008 10 16.0934 0 0
9:35 am 09:35 Sunny 77 24.8 64 17.8 65 65 SSW 12 19 29.76 1008 10 16.0934 0 0
9:55 am 09:55 Sunny 78 25.5 64 17.6 62 62 SSW 12 19 29.75 1008 10 16.0934 0 0
10:15 am 10:15 Sunny 79 26.1 63 17.4 59 59 SSW 14 22 29.75 1007 10 16.0934 0 0
10:35 am 10:35 Sunny 80 26.5 63 17.4 57 57 SSW 10 17 29.76 1008 10 16.0934 0 0
10:55 am 10:55 Sunny 82 27.5 64 17.7 55 55 SW 9 15 29.75 1007 10 16.0934 0 0
11:15 am 11:15 Sunny 82 27.8 64 17.8 55 55 SW 10 17 29.75 1007 10 16.0934 0 0
11:35 am 11:35 Sunny 83 28.1 64 18 54 54 SW 7 11 29.74 1007 10 16.0934 0 0
11:55 am 11:55 Sunny 83 28.5 65 18.2 54 54 S 8 13 29.74 1007 10 16.0934 0 0
12:15 pm 12:15 Sunny 85 29.3 65 18.6 53 53 S 7 11 29.71 1006 10 16.0934 0 0
12:35 pm 12:35 Sunny 85 29.6 65 18.5 51 51 SSE 6 9 29.71 1006 10 16.0934 0 0
12:55 pm 12:55 Sunny 87 30.3 64 18 48 48 S 9 15 29.72 1006 10 16.0934 0 0
1:15 pm 13:15 Sunny 88 31 64 17.7 45 45 S 10 17 29.7 1006 10 16.0934 0 0
1:35 pm 13:35 Sunny 89 31.5 63 17.2 42 42 S 12 19 29.7 1006 10 16.0934 0 0
1:55 pm 13:55 Sunny 89 31.9 62 16.7 40 40 S 10 17 29.69 1006 10 16.0934 0 0
2:15 pm 14:15 Sunny 90 32.4 63 17 40 40 S 9 15 29.69 1005 10 16.0934 0 0
2:35 pm 14:35 Sunny 91 32.8 62 16.5 38 38 S 8 13 29.68 1005 10 16.0934 0 0
2:55 pm 14:55 Sunny 92 33.4 62 16.5 36 36 S 10 17 29.67 1005 10 16.0934 0 0
3:35 pm 15:35 Sunny 93 34.1 61 16.3 34 34 SSW 12 19 29.66 1004 10 16.0934 0 0
3:55 pm 15:55 Sunny 94 34.2 60 15.8 33 33 S 9 15 29.66 1004 10 16.0934 0 0
4:15 pm 16:15 Sunny 94 34.6 60 15.7 32 32 S 13 20 29.64 1004 10 16.0934 0 0
4:35 pm 16:35 Sunny 94 34.7 60 15.4 31 31 S 13 20 29.63 1003 10 16.0934 0 0
4:55 pm 16:55 Sunny 95 35 59 15.2 30 30 S 10 17 29.62 1003 10 16.0934 0 0
5:15 pm 17:15 Sunny 93 34 60 15.3 32 32 S 8 13 29.62 1003 10 16.0934 0 0
5:35 pm 17:35 Sunny 93 33.8 60 15.5 33 33 S 8 13 29.61 1003 10 16.0934 0 0
5:55 pm 17:55 Sunny 92 33.1 61 15.9 36 36 S 6 9 29.61 1003 10 16.0934 0 0
6:15 pm 18:15 Sunny 91 32.8 60 15.8 36 36 S 8 13 29.61 1003 10 16.0934 0 0
6:35 pm 18:35 Sunny 89 31.9 62 16.6 40 40 SSE 5 7 29.61 1003 10 16.0934 0 0
6:55 pm 18:55 Sunny 89 31.5 62 16.8 41 41 SE 5 7 29.62 1003 10 16.0934 0 0
7:15 pm 19:15 Sunny 86 30.1 63 17.3 46 46 ESE 6 9 29.63 1003 10 16.0934 0 0
7:35 pm 19:35 Sunny 85 29.2 64 17.8 50 50 ESE 6 9 29.63 1004 10 16.0934 0 0
7:55 pm 19:55 Sunny 82 27.9 64 17.5 53 53 ESE 7 11 29.64 1004 10 16.0934 0 0
8:15 pm 20:15 Sunny 80 26.5 64 17.6 58 58 ESE 8 13 29.66 1004 10 16.0934 0 0
8:35 pm 20:35 Clear 77 25.2 63 17.3 62 62 ESE 8 13 29.67 1005 10 16.0934 0 0
8:55 pm 20:55 Clear 76 24.5 64 17.7 66 66 ESE 8 13 29.68 1005 10 16.0934 0 0
9:15 pm 21:15 Clear 75 24 65 18.1 70 70 SE 7 11 29.69 1005 10 16.0934 0 0
9:35 pm 21:35 Clear 75 24 64 17.9 69 69 ESE 7 11 29.71 1006 10 16.0934 0 0
9:55 pm 21:55 Clear 75 23.8 64 17.5 68 68 SE 8 13 29.71 1006 10 16.0934 0 0
10:15 pm 22:15 Clear 75 23.8 63 17.1 66 66 SE 9 15 29.7 1006 10 16.0934 0 0
10:35 pm 22:35 Clear 74 23.5 63 17.2 68 68 SSE 7 11 29.69 1005 10 16.0934 0 0
10:55 pm 22:55 Clear 74 23.1 63 17.2 70 70 SE 9 15 29.7 1006 10 16.0934 0 0
11:15 pm 23:15 Clear 74 23.1 63 17.2 70 70 SSE 6 9 29.7 1006 10 16.0934 0 0
11:35 pm 23:35 Clear 73 23 63 17.2 70 70 SSE 6 9 29.7 1006 10 16.0934 0 0
11:55 pm 23:55 Clear 72 22.2 63 17.1 73 73 SE 6 9 29.71 1006 10 16.0934 0 0

Powered by AerisWeather